Lander, WY

10:52 AM MDT on July 27, 2016 (GMT -0600)
Hunt

Weather History for KLND - July, 2013

Change the Weather History Date:

Friday, July 5, 2013

  Actual Average Record
Temperature  
Mean Temperature 72 °F 70 °F  
Max Temperature 88 °F 85 °F 98 °F (2001)
Min Temperature 56 °F 54 °F 37 °F (1901)
Degree Days  
Heating Degree Days 0 1  
Month to date heating degree days 0 5  
Since 1 June heating degree days 54 131  
Since 1 July heating degree days 0 5  
Cooling Degree Days 7 5  
Month to date cooling degree days 47 25  
Year to date cooling degree days 170 94  
Since 1 June cooling degree days 161 89  
Growing Degree Days 22 (Base 50)    
Moisture  
Dew Point 52 °F    
Average Humidity 53    
Maximum Humidity 86    
Minimum Humidity 20    
Precipitation  
Precipitation 0.00 in 0.01 in 0.68 in (1904)
Month to date precipitation 0.15 0.08  
Year to date precipitation 7.72 7.57  
Snow  
Snow 0.00 in 0.00 in - ()
Month to date snowfall 0.0 0.0  
Since 1 June snowfall 0.0 0.1  
Since 1 July snowfall 0.0 0.0  
Snow Depth 0.00 in    
Sea Level Pressure  
Sea Level Pressure 29.74 in    
Wind  
Wind Speed 5 mph (South)    
Max Wind Speed 25 mph    
Max Gust Speed 32 mph    
Visibility 9 miles    
Events      
T = Trace of Precipitation, MM = Missing Value Source: NWS Daily Summary

Daily Weather History Graph

Daily Weather History Graph

Search for Another Location

Airport or City:

Trip Planner

Search our weather history database for the weather conditions in past years. The results will help you decide how hot, cold, wet, or windy it might be!

Date:

Astronomy

Jul. 05, 2013 Rise Set
Actual Time 5:42 AM MDT 8:56 PM MDT
Civil Twilight 5:08 AM MDT 9:30 PM MDT
Nautical Twilight 4:23 AM MDT 10:15 PM MDT
Astronomical Twilight 3:28 AM MDT 11:09 PM MDT
Moon 3:45 AM MDT (7/5) 6:52 PM MDT (7/5)
Length of Visible Light 16h 22m
Length of Day
15h 13m
Waning Crescent, 6% of the Moon is Illuminated
Jul 5
Waning Crescent
Jul 8
New
Jul 15
First Quarter
Jul 22
Full
Jul 29
Last Quarter

Hourly Weather History & Observations

Time (MDT) Temp. Dew Point Humidity Pressure Visibility Wind Dir Wind Speed Gust Speed Precip Events Conditions
12:53 AM 62.1 °F 54.0 °F 75% 29.78 in 9.0 mi Calm Calm - N/A   Clear
1:53 AM 60.1 °F 54.0 °F 80% 29.78 in 8.0 mi Calm Calm - N/A   Partly Cloudy
2:53 AM 60.1 °F 53.1 °F 78% 29.77 in 9.0 mi WSW 6.9 mph - N/A   Clear
3:53 AM 59.0 °F 52.0 °F 78% 29.77 in 9.0 mi WSW 10.4 mph - N/A   Clear
4:53 AM 59.0 °F 52.0 °F 78% 29.75 in 9.0 mi Calm Calm - N/A   Clear
5:53 AM 57.9 °F 53.1 °F 84% 29.81 in 5.0 mi Calm Calm - N/A   Haze
6:53 AM 59.0 °F 53.1 °F 81% 29.79 in 7.0 mi WSW 8.1 mph - N/A   Clear
7:53 AM 64.9 °F 54.0 °F 68% 29.78 in 9.0 mi South 3.5 mph - N/A   Clear
8:53 AM 64.9 °F 57.0 °F 75% 29.79 in 7.0 mi SSE 5.8 mph - N/A   Clear
9:53 AM 72.0 °F 55.9 °F 57% 29.77 in 8.0 mi SE 4.6 mph - N/A   Clear
10:53 AM 73.9 °F 53.1 °F 48% 29.76 in 9.0 mi SE 3.5 mph - N/A   Clear
11:53 AM 77.0 °F 52.0 °F 42% 29.74 in 9.0 mi Calm Calm - N/A   Clear
12:53 PM 79.0 °F 51.1 °F 38% 29.73 in 10.0 mi ESE 6.9 mph - N/A   Mostly Cloudy
1:53 PM 80.1 °F 51.1 °F 36% 29.72 in 10.0 mi SSE 6.9 mph - N/A   Partly Cloudy
2:53 PM 86.0 °F 46.9 °F 26% 29.68 in 10.0 mi ESE 8.1 mph - N/A   Partly Cloudy
3:53 PM 87.1 °F 48.0 °F 26% 29.65 in 10.0 mi SSE 8.1 mph - N/A   Clear
4:53 PM 88.0 °F 46.0 °F 23% 29.62 in 10.0 mi SE 4.6 mph - N/A   Clear
5:53 PM 86.0 °F 48.0 °F 27% 29.61 in 10.0 mi South 4.6 mph - N/A   Clear
6:53 PM 88.0 °F 41.0 °F 19% 29.59 in 10.0 mi WNW 6.9 mph - N/A   Mostly Cloudy
7:17 PM 80.6 °F 51.8 °F 37% 29.84 in 10.0 mi NE 16.1 mph 23.0 mph N/A   Clear
7:53 PM 75.9 °F 52.0 °F 43% 29.69 in 10.0 mi North 15.0 mph 19.6 mph N/A   Partly Cloudy
8:53 PM 71.1 °F 52.0 °F 51% 29.74 in 10.0 mi North 4.6 mph - N/A   Mostly Cloudy
9:53 PM 69.1 °F 53.1 °F 57% 29.74 in 10.0 mi WSW 8.1 mph - N/A   Partly Cloudy
10:53 PM 68.0 °F 52.0 °F 56% 29.75 in 10.0 mi WSW 5.8 mph - N/A   Clear
11:53 PM 66.0 °F 52.0 °F 60% 29.74 in 10.0 mi SSE 3.5 mph - N/A   Partly Cloudy